Location: Peebles
(55.6412°N, 3.1714°W)
Time: 12:17:21
(UTC+00:00)

CUTE-I - Pass Details

Date: 10 December 2023
Orbit: 807 x 823 km, 98.7° (Epoch: 24 February)

Event Time Altitude Azimuth Distance (km) Brightness Sun altitude
Rises 16:30:59 0° 141° (SE) 3,326 ? -6.5°
Reaches altitude 10° 16:33:23 10° 135° (SE) 2,400 ? -6.8°
Maximum altitude 16:38:27 47° 63° (ENE) 1,074 ? -7.4°
Drops below altitude 10° 16:43:33 10° 351° (N) 2,425 ? -8.0°
Sets 16:45:59 0° 346° (NNW) 3,364 ? -8.3°
